Flag for Nicaragua Weather past 2 weeks in Managua, Nicaragua

Now
90 °F

Partly sunny.


Feels Like: 96 °F
Forecast: 78 / 94 °F
Wind: 12 mph from Northeast

Location: Managua A. C. Sandino

Current Time: Aug 28, 2015 at 12:16:40 PM

Latest Report: Aug 28, 2015 at 11:00 AM


Visibility: N/A

Pressure: 29.83 "Hg

Humidity: 55%

Dew point: 72 °F

Location of ManaguaLocation

Historic Weather in Managua — Graph

°F

Managua temperature yesterday

Maximum temperature yesterday: 95 °F (at 12:00 PM)
Minimum temperature yesterday: 77 °F (at 3:00 AM)
Average temperature yesterday: 85 °F

Past Weeks' High & Low Weather Summary

 TemperatureHumidityPressure
High97 °F (Aug 18, 2:00 PM)94% (Aug 16, 8:00 PM)29.92 "Hg (Aug 16, 8:00 PM)
Low73 °F (Aug 25, 3:00 AM)39% (Aug 24, 1:00 PM)29.71 "Hg (Aug 24, 3:00 PM)
Average84 °F70%29.83 "Hg
* Reported Aug 13 11:00 AM — Aug 28 11:00 AM, Managua, Weather by CustomWeather, © 2015

Note: Actual official high and low records may vary slightly from our data, if they occured in-between our weather recording intervals... More about our weather records

Advertising

Managua weather history for previous 24 hours

 ConditionsComfort  
Time TempWeatherWind HumidityBarometerVisibility
11:00 AM
Fri, Aug 28
90 °FPartly sunny.12 mph55%29.83 "HgN/A
10:00 AM88 °FScattered clouds.9 mph59%29.83 "HgN/A
9:00 AM88 °FWarm.7 mph59%29.86 "HgN/A
8:00 AM86 °FScattered clouds.7 mph66%29.86 "HgN/A
7:00 AM82 °FPassing clouds.9 mph74%29.83 "HgN/A
6:00 AM77 °FPassing clouds.9 mph89%29.83 "HgN/A
5:00 AM77 °FPassing clouds.7 mph79%29.83 "HgN/A
4:00 AM77 °FPassing clouds.5 mph79%29.80 "HgN/A
11:00 PM
Thu, Aug 27
81 °FPassing clouds.5 mph79%29.86 "HgN/A
10:00 PM81 °FPassing clouds.5 mph79%29.86 "HgN/A
9:00 PM82 °FPassing clouds.7 mph74%29.83 "HgN/A
8:00 PM82 °FPassing clouds.5 mph79%29.80 "HgN/A
7:00 PM84 °FPassing clouds.9 mph74%29.80 "HgN/A
6:00 PM84 °FPassing clouds.14 mph70%29.77 "HgN/A
5:00 PM90 °FScattered clouds.18 mph59%29.77 "HgN/A
4:00 PM91 °FScattered clouds.16 mph52%29.74 "HgN/A
3:00 PM93 °FPassing clouds.18 mph53%29.77 "HgN/A
2:00 PM93 °FScattered clouds.12 mph53%29.77 "HgN/A
1:00 PM95 °FScattered clouds.16 mph47%29.83 "HgN/A
12:00 PM95 °FScattered clouds.12 mph47%29.83 "HgN/A
Weather by CustomWeather, © 2015

See weather overviewHow to use our weather pages